Location: Brede
(50.9167°N, 0.6000°E)
Time: 20:18:07
(UTC+00:00)

Vanguard 1 Rocket - Pass Details

Date: 29 November 2020
Orbit: 655 x 4221 km, 34.3° (Epoch: 17 January)

Event Time Altitude Azimuth Distance (km) Brightness Sun altitude
Exits shadow 00:57:16 30° 125° (SE) 5,095 11.0 -57.5°
Drops below altitude 10° 01:06:50 10° 97° (E) 5,834 11.6 -56.6°
Sets 01:11:00 0° 90° (E) 6,418 12.0 -56.2°
